CEB111 VHHH-RPLL

Flight info

Callsign CEB111
Flight time N/A
Altitude 39000
Route DALOL1X DALOL V642 NOMAN A461 AVMUP W16 TADEL TADEL7R
Aircraft A339/H-SADE1E2E3GHIJ1J3J5M1P2RWXY/LB2D1

Departure

Time 2026-05-04 03:30
Airport Hong Kong International Airport (VHHH)

Arrival

Time N/A
Airport Ninoy Aquino International Airport (RPLL)
Time Latitude Longitude Altitude Speed Heading
2026-05-04 03:30 22.31331 114.08154 7473 ft 250 kts 156°
2026-05-04 03:30 22.29653 114.08765 7968 ft 258 kts 175°
2026-05-04 03:31 22.25932 114.08784 8951 ft 280 kts 185°
2026-05-04 03:31 22.23846 114.08717 9532 ft 290 kts 185°
2026-05-04 03:31 22.19588 114.08649 10785 ft 306 kts 183°
2026-05-04 03:32 22.17272 114.09110 11106 ft 334 kts 160°
2026-05-04 03:32 22.13778 114.13148 12065 ft 373 kts 118°
2026-05-04 03:32 22.12631 114.15729 12829 ft 375 kts 119°
2026-05-04 03:33 22.11612 114.17969 13448 ft 378 kts 120°
2026-05-04 03:33 22.10362 114.20642 14139 ft 382 kts 120°
2026-05-04 03:33 22.07467 114.25944 15443 ft 385 kts 134°
2026-05-04 03:34 22.05356 114.28155 16127 ft 383 kts 146°
2026-05-04 03:34 22.02842 114.30151 16865 ft 385 kts 149°
2026-05-04 03:34 22.00382 114.32031 17518 ft 389 kts 149°
2026-05-04 03:35 21.95300 114.35983 18862 ft 398 kts 148°
2026-05-04 03:35 21.92704 114.38025 19468 ft 403 kts 148°
2026-05-04 03:35 21.90497 114.39763 19978 ft 407 kts 148°
2026-05-04 03:35 21.86741 114.42837 20832 ft 417 kts 141°
2026-05-04 03:36 21.83500 114.48632 21819 ft 441 kts 109°
2026-05-04 03:36 21.83084 114.50206 22069 ft 442 kts 108°
2026-05-04 03:36 21.82295 114.53439 22549 ft 446 kts 107°
2026-05-04 03:37 21.81522 114.56657 23013 ft 450 kts 107°
2026-05-04 03:37 21.80723 114.59912 23465 ft 453 kts 107°
2026-05-04 03:37 21.79895 114.63202 23930 ft 457 kts 107°
2026-05-04 03:37 21.79056 114.66474 24365 ft 460 kts 108°
2026-05-04 03:38 21.78192 114.69817 24793 ft 464 kts 108°
2026-05-04 03:38 21.77330 114.73138 25213 ft 467 kts 108°
2026-05-04 03:38 21.76456 114.76505 25628 ft 471 kts 108°
2026-05-04 03:38 21.75559 114.79944 26045 ft 474 kts 109°
2026-05-04 03:39 21.74412 114.83195 26420 ft 473 kts 119°
2026-05-04 03:39 21.72704 114.86207 26833 ft 471 kts 130°
2026-05-04 03:39 21.70548 114.88831 27240 ft 468 kts 139°
2026-05-04 03:39 21.68207 114.91314 27628 ft 471 kts 140°
2026-05-04 03:40 21.65853 114.93758 27993 ft 474 kts 140°
2026-05-04 03:40 21.63465 114.96242 28374 ft 477 kts 140°
2026-05-04 03:40 21.61086 114.98732 28724 ft 480 kts 140°
2026-05-04 03:40 21.58703 115.01240 29079 ft 484 kts 140°
2026-05-04 03:41 21.56289 115.03790 29432 ft 487 kts 139°
2026-05-04 03:41 21.53878 115.06340 29771 ft 490 kts 140°
2026-05-04 03:41 21.51451 115.08910 30125 ft 492 kts 139°
2026-05-04 03:41 21.49011 115.11496 30485 ft 494 kts 139°
2026-05-04 03:42 21.46572 115.14081 30843 ft 496 kts 139°
2026-05-04 03:42 21.44097 115.16702 31190 ft 499 kts 139°
2026-05-04 03:42 21.41649 115.19294 31604 ft 499 kts 139°
2026-05-04 03:42 21.39163 115.21926 32131 ft 497 kts 139°
2026-05-04 03:43 21.36735 115.24496 32656 ft 494 kts 139°
2026-05-04 03:43 21.34298 115.27074 33209 ft 492 kts 139°
2026-05-04 03:43 21.31868 115.29641 33728 ft 491 kts 139°
2026-05-04 03:43 21.29448 115.32196 34219 ft 489 kts 139°
2026-05-04 03:44 21.27039 115.34737 34723 ft 488 kts 139°
2026-05-04 03:44 21.24600 115.37312 35248 ft 486 kts 139°
2026-05-04 03:44 21.22213 115.39831 35732 ft 484 kts 139°
2026-05-04 03:44 21.19831 115.42342 36161 ft 483 kts 139°
2026-05-04 03:45 21.17422 115.44879 36543 ft 483 kts 139°
2026-05-04 03:45 21.15027 115.47400 36910 ft 483 kts 139°
2026-05-04 03:45 21.12656 115.49895 37273 ft 482 kts 139°
2026-05-04 03:45 21.10241 115.52434 37617 ft 482 kts 139°
2026-05-04 03:46 21.07870 115.54926 37899 ft 483 kts 139°
2026-05-04 03:46 21.05471 115.57447 38167 ft 484 kts 139°
2026-05-04 03:46 21.03056 115.59985 38431 ft 485 kts 139°
2026-05-04 03:46 21.00643 115.62517 38669 ft 487 kts 139°
2026-05-04 03:47 20.98214 115.65067 38886 ft 489 kts 139°
2026-05-04 03:47 20.95787 115.67611 38998 ft 491 kts 139°
2026-05-04 03:47 20.93357 115.70159 38997 ft 492 kts 139°
2026-05-04 03:48 20.88495 115.75253 38993 ft 491 kts 139°
2026-05-04 03:48 20.83623 115.80355 38991 ft 491 kts 139°
2026-05-04 03:49 20.78740 115.85463 38991 ft 491 kts 139°
2026-05-04 03:49 20.73851 115.90571 38991 ft 491 kts 139°
2026-05-04 03:50 20.68976 115.95659 38992 ft 491 kts 139°
2026-05-04 03:50 20.64106 116.00738 38993 ft 490 kts 139°
2026-05-04 03:51 20.59242 116.05804 38993 ft 491 kts 139°
2026-05-04 03:51 20.54331 116.10915 38991 ft 491 kts 139°
2026-05-04 03:52 20.49450 116.15991 38991 ft 491 kts 139°
2026-05-04 03:52 20.44551 116.21080 38990 ft 491 kts 139°
2026-05-04 03:53 20.39664 116.26153 38989 ft 491 kts 139°
2026-05-04 03:53 20.34774 116.31225 38989 ft 491 kts 139°
2026-05-04 03:54 20.29884 116.36289 38987 ft 491 kts 138°
2026-05-04 03:54 20.24983 116.41361 38986 ft 491 kts 138°
2026-05-04 03:55 20.20103 116.46409 38985 ft 491 kts 138°
2026-05-04 03:55 20.15220 116.51455 38983 ft 491 kts 138°
2026-05-04 03:56 20.10298 116.56537 38983 ft 491 kts 138°
2026-05-04 03:56 20.05422 116.61567 38980 ft 491 kts 138°
2026-05-04 03:57 20.00517 116.66636 38974 ft 491 kts 137°
2026-05-04 03:57 19.95839 116.71954 38979 ft 492 kts 135°
2026-05-04 03:58 19.88917 116.79999 38973 ft 493 kts 135°
2026-05-04 03:58 19.84306 116.85348 38972 ft 492 kts 135°
2026-05-04 03:59 19.79688 116.90696 38973 ft 492 kts 135°
2026-05-04 03:59 19.75043 116.96071 38972 ft 491 kts 135°
2026-05-04 04:00 19.70446 117.01385 38970 ft 490 kts 135°
2026-05-04 04:00 19.65839 117.06704 38966 ft 490 kts 135°
2026-05-04 04:01 19.61228 117.12023 38970 ft 490 kts 135°
2026-05-04 04:01 19.56612 117.17342 38962 ft 490 kts 135°
2026-05-04 04:02 19.51973 117.22686 38962 ft 490 kts 135°
2026-05-04 04:02 19.47380 117.27972 38957 ft 490 kts 135°
2026-05-04 04:03 19.42735 117.33312 38956 ft 490 kts 135°
2026-05-04 04:03 19.38155 117.38570 38954 ft 490 kts 135°
2026-05-04 04:04 19.33514 117.43895 38954 ft 489 kts 135°
2026-05-04 04:04 19.28911 117.49172 38953 ft 490 kts 135°
2026-05-04 04:05 19.24259 117.54498 38952 ft 490 kts 135°
2026-05-04 04:05 19.19638 117.59789 38953 ft 490 kts 135°
2026-05-04 04:06 19.15046 117.65042 38953 ft 490 kts 135°
2026-05-04 04:06 19.10417 117.70332 38952 ft 489 kts 135°
2026-05-04 04:07 19.05783 117.75622 38952 ft 489 kts 135°
2026-05-04 04:07 19.01169 117.80882 38953 ft 489 kts 135°
2026-05-04 04:08 18.96563 117.86122 38951 ft 489 kts 135°
2026-05-04 04:08 18.91916 117.91409 38951 ft 490 kts 135°
2026-05-04 04:09 18.87294 117.96664 38948 ft 492 kts 135°
2026-05-04 04:09 18.82617 118.01977 38946 ft 491 kts 135°
2026-05-04 04:10 18.77986 118.07236 38947 ft 490 kts 135°
2026-05-04 04:10 18.73345 118.12501 38943 ft 489 kts 135°
2026-05-04 04:11 18.68724 118.17737 38941 ft 489 kts 135°
2026-05-04 04:11 18.64066 118.23010 38941 ft 490 kts 135°
2026-05-04 04:12 18.59427 118.28258 38939 ft 490 kts 135°
2026-05-04 04:12 18.54789 118.33501 38935 ft 490 kts 135°
2026-05-04 04:13 18.50152 118.38741 38935 ft 489 kts 135°
2026-05-04 04:13 18.45525 118.43963 38933 ft 489 kts 135°
2026-05-04 04:14 18.40869 118.49210 38929 ft 488 kts 135°
2026-05-04 04:14 18.36234 118.54432 38927 ft 489 kts 135°
2026-05-04 04:15 18.31599 118.59650 38926 ft 489 kts 134°
2026-05-04 04:15 18.26951 118.64877 38924 ft 488 kts 134°
2026-05-04 04:16 18.22293 118.70111 38920 ft 489 kts 135°
2026-05-04 04:16 18.17660 118.75316 38919 ft 488 kts 135°
2026-05-04 04:17 18.13032 118.80511 38916 ft 487 kts 135°
2026-05-04 04:17 18.08397 118.85706 38915 ft 487 kts 135°
2026-05-04 04:18 18.03705 118.90845 38916 ft 488 kts 137°
2026-05-04 04:18 17.98560 118.95511 38913 ft 486 kts 144°
2026-05-04 04:19 17.92996 118.99504 38912 ft 484 kts 151°
2026-05-04 04:19 17.87160 119.02940 38907 ft 483 kts 153°
2026-05-04 04:20 17.81259 119.06342 38908 ft 483 kts 153°
2026-05-04 04:20 17.75383 119.09737 38901 ft 482 kts 153°
2026-05-04 04:21 17.69480 119.13149 38901 ft 482 kts 153°
2026-05-04 04:21 17.63631 119.16532 38905 ft 482 kts 153°
2026-05-04 04:22 17.57762 119.19923 38910 ft 481 kts 153°
2026-05-04 04:22 17.51921 119.23297 38905 ft 481 kts 153°
2026-05-04 04:23 17.46070 119.26673 38897 ft 481 kts 153°
2026-05-04 04:23 17.40188 119.30064 38893 ft 480 kts 153°
2026-05-04 04:24 17.34345 119.33431 38892 ft 479 kts 153°
2026-05-04 04:24 17.28475 119.36810 38893 ft 479 kts 153°
2026-05-04 04:25 17.22646 119.40165 38891 ft 479 kts 153°
2026-05-04 04:25 17.16788 119.43533 38889 ft 479 kts 153°
2026-05-04 04:26 17.10945 119.46889 38882 ft 480 kts 153°
2026-05-04 04:26 17.05067 119.50266 38887 ft 480 kts 153°
2026-05-04 04:27 16.99213 119.53626 38885 ft 478 kts 153°
2026-05-04 04:27 16.93370 119.56974 38886 ft 478 kts 153°
2026-05-04 04:28 16.87517 119.60326 38889 ft 477 kts 153°
2026-05-04 04:28 16.81696 119.63657 38885 ft 477 kts 153°
2026-05-04 04:29 16.75870 119.66990 38883 ft 477 kts 153°
2026-05-04 04:29 16.70085 119.70300 38881 ft 476 kts 154°
2026-05-04 04:30 16.64242 119.73636 38881 ft 475 kts 154°
2026-05-04 04:30 16.58445 119.76947 38877 ft 475 kts 154°
2026-05-04 04:31 16.52665 119.80244 38349 ft 473 kts 154°
2026-05-04 04:31 16.49758 119.81902 36839 ft 479 kts 154°
2026-05-04 04:31 16.46842 119.83561 35041 ft 487 kts 154°
2026-05-04 04:32 16.43874 119.85250 33218 ft 493 kts 154°
2026-05-04 04:32 16.40846 119.86971 31398 ft 498 kts 153°
2026-05-04 04:32 16.37821 119.88692 29612 ft 502 kts 153°
2026-05-04 04:32 16.34828 119.90395 28457 ft 490 kts 153°
2026-05-04 04:33 16.31876 119.92078 27952 ft 466 kts 153°
2026-05-04 04:33 16.29067 119.93679 27774 ft 460 kts 153°
2026-05-04 04:33 16.26322 119.95241 27539 ft 458 kts 153°
2026-05-04 04:33 16.23483 119.96854 27217 ft 454 kts 152°
2026-05-04 04:34 16.20697 119.98438 26856 ft 451 kts 152°
2026-05-04 04:34 16.17922 120.00013 26475 ft 448 kts 152°
2026-05-04 04:34 16.15196 120.01561 26092 ft 445 kts 152°
2026-05-04 04:34 16.12480 120.03103 25705 ft 442 kts 152°
2026-05-04 04:35 16.09803 120.04623 25326 ft 439 kts 152°
2026-05-04 04:35 16.07135 120.06136 24940 ft 436 kts 152°
2026-05-04 04:35 16.04454 120.07657 24548 ft 433 kts 152°
2026-05-04 04:35 16.01838 120.09140 24164 ft 430 kts 152°
2026-05-04 04:36 15.99224 120.10622 23779 ft 427 kts 152°
2026-05-04 04:36 15.96631 120.12090 23386 ft 424 kts 152°
2026-05-04 04:36 15.94039 120.13558 22995 ft 421 kts 151°
2026-05-04 04:36 15.91461 120.15018 22604 ft 418 kts 151°
2026-05-04 04:37 15.83867 120.19320 21442 ft 409 kts 151°
2026-05-04 04:37 15.81370 120.20733 21046 ft 406 kts 151°
2026-05-04 04:38 15.78869 120.22148 20643 ft 403 kts 151°
2026-05-04 04:38 15.76413 120.23536 20248 ft 400 kts 151°
2026-05-04 04:38 15.73975 120.24915 19841 ft 398 kts 151°
2026-05-04 04:38 15.71569 120.26274 19468 ft 395 kts 151°
2026-05-04 04:39 15.69146 120.27643 19083 ft 392 kts 151°
2026-05-04 04:39 15.66741 120.29001 18682 ft 390 kts 151°
2026-05-04 04:39 15.64359 120.30346 18304 ft 387 kts 151°
2026-05-04 04:39 15.61993 120.31681 17905 ft 385 kts 151°
2026-05-04 04:40 15.59642 120.33008 17528 ft 382 kts 151°
2026-05-04 04:40 15.57304 120.34327 17132 ft 380 kts 151°
2026-05-04 04:40 15.54992 120.35631 16747 ft 378 kts 151°
2026-05-04 04:40 15.52675 120.36935 16368 ft 376 kts 150°
2026-05-04 04:41 15.50396 120.38221 16187 ft 367 kts 150°
2026-05-04 04:41 15.48168 120.39476 16112 ft 355 kts 150°
2026-05-04 04:41 15.46032 120.40679 16027 ft 343 kts 150°
2026-05-04 04:41 15.43945 120.41854 15982 ft 331 kts 150°
2026-05-04 04:42 15.41929 120.42910 15935 ft 321 kts 155°
2026-05-04 04:42 15.39878 120.43762 15916 ft 317 kts 159°
2026-05-04 04:42 15.37731 120.44475 15918 ft 322 kts 161°
2026-05-04 04:42 15.35595 120.45153 15911 ft 322 kts 162°
2026-05-04 04:43 15.33449 120.45829 15915 ft 322 kts 162°
2026-05-04 04:43 15.31284 120.46513 15922 ft 323 kts 161°
2026-05-04 04:43 15.29140 120.47191 15920 ft 323 kts 162°
2026-05-04 04:43 15.26966 120.47880 15922 ft 324 kts 161°
2026-05-04 04:44 15.24816 120.48563 15923 ft 324 kts 162°
2026-05-04 04:44 15.22632 120.49255 15924 ft 325 kts 161°
2026-05-04 04:44 15.20450 120.49947 15924 ft 325 kts 161°
2026-05-04 04:44 15.18290 120.50633 15922 ft 325 kts 161°
2026-05-04 04:45 15.16097 120.51328 15923 ft 324 kts 161°
2026-05-04 04:45 15.13932 120.52016 15923 ft 324 kts 162°
2026-05-04 04:45 15.11775 120.52699 15921 ft 324 kts 161°